Tracking 28920 objects as of 24-May-2024
HD Live streaming from Space Station
objects crossing your sky now

FLOCK 4X 12

Track FLOCK 4X 12 now!
10-day predictions


NORAD ID: 51015
Int'l Code: 2022-002AH
Perigee: 431.1 km
Apogee: 439.6 km
Inclination: 97.4 °
Period: 93.1 minutes
Semi major axis: 6806 km
RCS: Unknown
Launch date: January 13, 2022
Source: United States (US)
Launch site: AIR FORCE EASTERN TEST RANGE (AFETR)
Your satellite tracking list
Your tracking list is empty




NASA's NSSDC Master Catalog

Two Line Element Set (TLE):
1 51015U 22002AH  24145.17727981  .00046172  00000-0  94114-3 0  9998
2 51015  97.3916 220.8614 0006256 101.1301 259.0652 15.46072939131301
Source of the keplerian elements: AFSPC